Weather reports worldwide

Advertisment
Paharova, Sweden (2184): temperature & dewpoint: 04.07.2020 10:00:00 - 10.07.2020 10:00:00 (CEST)Paharova, Sweden (2184): wind speed & gusts: 04.07.2020 10:00:00 - 10.07.2020 10:00:00 (CEST)Paharova, Sweden (2184): wind direction: 04.07.2020 10:00:00 - 10.07.2020 10:00:00 (CEST)Paharova, Sweden (2184): reduced air pressure: 04.07.2020 10:00:00 - 10.07.2020 10:00:00 (CEST)Paharova, Sweden (2184): visibility: 04.07.2020 10:00:00 - 10.07.2020 10:00:00 (CEST)Paharova, Sweden (2184): precipitation: 04.07.2020 10:00:00 - 10.07.2020 10:00:00 (CEST)
Date & Time tt [°C] td [°C] ff [km/h] ff [kn] fx [km/h] fx [kn] dd ppp [hPa] vv [km] rr [mm]
10.07.2020 10:00:00 10,1 7,5 13 7 27 14 N 1003,5 46 0,0
10.07.2020 09:00:00 9,5 8,3 12 6 27 15 N 1003,5 42 0,0
10.07.2020 08:00:00 8,9 7,8 14 7 33 18 N 1003,6 19 0,5
10.07.2020 07:00:00 8,8 8,2 12 7 30 16 N 1003,6 15 0,6
10.07.2020 06:00:00 9,0 8,2 16 9 35 19 NNE 1003,3 15 0,9
10.07.2020 05:00:00 10,0 9,2 13 7 23 12 NNE 1003,2 23 1,3
10.07.2020 04:00:00 9,8 9,5 7 4 12 6 NNE 1003,4 40 0,0
10.07.2020 03:00:00 9,5 9,2 2 1 8 4 NNE 1003,6 35 0,0
10.07.2020 02:00:00 9,0 8,9 0 0 5 3 N 1003,8 12 0,0
10.07.2020 01:00:00 9,3 9,2 0 0 5 3 N 1004,0 10 0,0
10.07.2020 00:00:00 9,8 9,3 4 2 6 3 N 1004,2 45 0,0
09.07.2020 23:00:00 9,7 9,2 4 2 6 3 ENE 1004,0 33 0,0
09.07.2020 22:00:00 10,1 9,2 3 2 9 5 ESE 1004,0 50 0,0
09.07.2020 21:00:00 10,4 9,6 5 3 16 8 E 1004,2 42 1,7
09.07.2020 20:00:00 12,7 12,1 3 1 9 5 SSE 1004,6 46 0,1
09.07.2020 19:00:00 13,0 11,7 4 2 10 5 ENE 1004,4 24 0,0
09.07.2020 18:00:00 12,9 12,3 0 0 7 4 N 1004,3 36 1,5
09.07.2020 17:00:00 13,8 11,7 2 1 15 8 SSW 1004,6 25 0,3
09.07.2020 16:00:00 15,1 10,3 5 3 14 8 N 1004,3 50 0,0
09.07.2020 15:00:00 17,7 9,6 2 1 16 9 SSE 1003,8 42 0,2
09.07.2020 14:00:00 16,5 9,4 4 2 11 6 SE 1004,1 19 0,1
09.07.2020 13:00:00 16,3 9,2 7 4 13 7 ESE 1004,2 42 0,0
09.07.2020 12:00:00 17,1 10,2 5 3 16 9 S 1004,2 39 0,0
09.07.2020 11:00:00 14,9 9,5 3 1 13 7 SSW 1004,6 34 0,0
09.07.2020 10:00:00 13,4 10,8 6 3 18 10 S 1005,1 50 0,0
09.07.2020 09:00:00 12,9 11,0 5 3 11 6 SSW 1004,7 44 0,0
09.07.2020 08:00:00 11,6 11,1 4 2 11 6 SSE 1004,8 4,9 0,0
09.07.2020 07:00:00 11,5 11,0 4 2 10 5 SSW 1004,5 1,0 0,0
09.07.2020 06:00:00 11,5 11,3 2 1 4 2 SSE 1004,2 1,1 0,0
09.07.2020 05:00:00 10,7 10,5 0 0 3 1 N 1003,9 0,9 0,0
09.07.2020 04:00:00 10,7 10,4 0 0 5 3 N 1003,7 4,8 0,0
09.07.2020 03:00:00 10,8 10,2 0 0 4 2 N 1003,6 49 0,0
09.07.2020 02:00:00 10,7 10,1 0 0 6 3 N 1003,5 50 0,0
09.07.2020 01:00:00 10,2 9,6 0 0 4 2 N 1003,5 50 0,0
09.07.2020 00:00:00 10,6 9,8 2 1 4 2 N 1003,2 50 0,0
08.07.2020 23:00:00 11,1 9,7 0 0 5 3 N 1003,0 50 0,1
08.07.2020 22:00:00 12,4 11,8 0 0 6 3 N 1002,7 34 0,1
08.07.2020 21:00:00 13,1 12,2 3 1 12 6 SW 1002,2 20 0,3
08.07.2020 20:00:00 14,6 10,4 0 0 7 4 N 1001,9 50 0,0
08.07.2020 19:00:00 13,5 9,7 3 2 6 4 N 1002,1 50 0,0
08.07.2020 18:00:00 13,5 10,8 4 2 8 4 N 1002,2 50 0,0
08.07.2020 17:00:00 13,4 11,1 2 1 10 5 NNE 1002,3 23 0,6
08.07.2020 16:00:00 12,0 11,2 2 1 14 7 S 1002,5 5 0,9
08.07.2020 15:00:00 13,4 11,1 3 2 11 6 S 1002,0 25 0,1
08.07.2020 14:00:00 15,1 10,5 4 2 11 6 N 1001,8 43 0,0
08.07.2020 13:00:00 14,2 11,5 3 2 8 4 SSE 1001,8 31 0,0
08.07.2020 12:00:00 13,6 11,6 3 2 10 5 ESE 1001,7 42 0,8
08.07.2020 11:00:00 12,1 10,0 4 2 12 7 E 1001,5 11 0,6
08.07.2020 10:00:00 13,6 9,6 4 2 12 7 ENE 1001,1 50 0,0
08.07.2020 09:00:00 13,3 9,4 6 4 14 8 NNE 1000,8 50 0,0
08.07.2020 08:00:00 12,8 9,6 6 4 13 7 N 1000,8 48 0,0
08.07.2020 07:00:00 11,8 9,5 6 3 13 7 N 1000,8 50 0,0
08.07.2020 06:00:00 11,6 9,7 5 3 14 8 N 1000,7 50 0,0
08.07.2020 05:00:00 11,2 9,8 7 4 18 10 N 1000,5 50 0,0
08.07.2020 04:00:00 10,8 9,9 9 5 16 9 N 1000,4 46 0,0
08.07.2020 03:00:00 10,6 9,7 6 3 13 7 N 1000,5 50 0,0
08.07.2020 02:00:00 10,6 9,5 4 2 14 8 NNE 1000,3 50 0,1
08.07.2020 01:00:00 10,5 10,0 3 2 5 3 N 1000,3 49 0,2
08.07.2020 00:00:00 10,9 10,0 0 0 4 2 N 1000,0 29 0,1
07.07.2020 23:00:00 11,3 9,7 0 0 5 3 N 999,6 50 0,0
07.07.2020 22:00:00 12,1 9,1 3 2 12 6 ESE 999,4 50 0,0
07.07.2020 21:00:00 12,9 10,4 3 2 14 8 E 999,1 41 0,1
07.07.2020 20:00:00 14,1 9,9 3 2 10 5 E 998,6 50 0,0
07.07.2020 19:00:00 14,3 8,5 3 2 16 9 ENE 998,6 50 0,0
07.07.2020 18:00:00 14,9 9,9 4 2 16 9 ENE 998,2 50 0,0
07.07.2020 17:00:00 14,4 8,1 4 2 19 10 ENE 998,3 48 0,0
07.07.2020 16:00:00 15,1 7,1 9 5 22 12 ESE 997,8 50 0,0
07.07.2020 15:00:00 13,8 9,6 7 4 22 12 E 997,6 48 0,0
07.07.2020 14:00:00 13,5 9,7 10 5 26 14 ESE 997,0 45 0,0
07.07.2020 13:00:00 16,3 7,5 5 3 20 11 E 996,3 37 0,0
07.07.2020 12:00:00 16,1 7,3 9 5 17 9 NNE 996,0 44 0,0
07.07.2020 11:00:00 15,4 7,7 6 4 18 10 E 995,7 38 0,0
07.07.2020 10:00:00 14,1 6,9 8 4 19 10 NNE 995,4 45 0,0
07.07.2020 09:00:00 13,6 6,7 6 3 14 8 NNE 995,0 42 0,0
07.07.2020 08:00:00 12,4 7,9 0 0 6 3 N 994,8 47 0,0
07.07.2020 07:00:00 11,2 8,2 0 0 9 5 N 994,3 50 0,0
07.07.2020 06:00:00 10,0 7,4 0 0 15 8 N 993,8 50 0,0
07.07.2020 05:00:00 9,7 6,4 4 2 9 5 N 993,4 50 0,0
07.07.2020 04:00:00 9,5 7,3 2 1 6 3 NNE 992,7 50 0,0
07.07.2020 03:00:00 9,2 7,3 0 0 5 3 N 992,0 50 0,0
07.07.2020 02:00:00 8,8 7,2 0 0 5 3 N 991,7 50 0,0
07.07.2020 01:00:00 9,3 7,4 0 0 5 3 N 991,4 50 0,0
07.07.2020 00:00:00 9,8 7,6 3 2 6 4 SSE 991,0 50 0,0
06.07.2020 23:00:00 10,1 7,7 4 2 7 4 S 990,6 50 0,0
06.07.2020 22:00:00 11,4 8,3 3 1 10 6 S 990,0 50 0,0
06.07.2020 21:00:00 13,3 7,9 5 3 10 5 S 989,4 50 0,0
06.07.2020 20:00:00 13,9 6,5 5 3 12 6 SE 989,2 50 0,0
06.07.2020 19:00:00 14,4 6,0 5 3 16 9 SE 989,0 50 0,0
06.07.2020 18:00:00 14,4 7,0 6 3 16 9 ESE 988,9 50 0,0
06.07.2020 17:00:00 14,1 6,2 4 2 11 6 ESE 989,0 47 0,0
06.07.2020 16:00:00 14,1 6,5 5 3 16 8 NE 988,7 47 0,0
06.07.2020 15:00:00 14,2 5,5 8 5 17 9 NNE 988,4 48 0,0
06.07.2020 14:00:00 14,3 6,4 6 3 16 9 N 988,3 50 0,0
06.07.2020 13:00:00 13,5 5,9 6 4 18 10 N 988,6 45 0,0
06.07.2020 12:00:00 13,2 5,8 6 3 23 12 NE 988,8 50 0,0
06.07.2020 11:00:00 12,9 5,3 6 3 24 13 ENE 989,0 43 0,0
06.07.2020 10:00:00 12,7 6,5 8 4 23 12 NNE 989,2 46 0,0
06.07.2020 09:00:00 11,9 5,5 9 5 21 12 N 989,4 42 0,0
06.07.2020 08:00:00 9,8 5,0 11 6 20 11 N 990,2 42 0,0
06.07.2020 07:00:00 9,4 5,0 12 7 23 13 N 990,7 45 0,0
06.07.2020 06:00:00 8,4 4,8 10 5 20 11 NNE 991,4 43 0,0
06.07.2020 05:00:00 7,8 4,7 9 5 20 11 NE 992,0 50 0,0
06.07.2020 04:00:00 7,0 5,0 9 5 16 9 NNE 992,4 50 0,0
06.07.2020 03:00:00 6,2 5,2 6 4 12 7 NNE 993,1 50 0,0
06.07.2020 02:00:00 5,8 5,1 2 1 9 5 E 993,9 50 0,0
06.07.2020 01:00:00 6,5 5,1 7 4 12 7 NE 994,0 50 0,0
06.07.2020 00:00:00 7,2 5,0 5 3 12 6 NE 994,4 50 0,0
05.07.2020 23:00:00 8,5 5,2 4 2 10 5 NE 994,7 50 0,0
05.07.2020 22:00:00 10,2 5,4 4 2 8 5 NE 994,7 50 0,0
05.07.2020 21:00:00 11,2 5,3 2 1 8 5 E 994,8 50 0,0
05.07.2020 20:00:00 12,5 5,2 5 3 15 8 N 994,7 50 0,0
05.07.2020 19:00:00 12,6 4,6 7 4 13 7 NNE 995,1 50 0,0
05.07.2020 18:00:00 13,0 5,9 4 2 12 6 N 995,3 50 0,0
05.07.2020 17:00:00 12,9 6,0 5 3 14 8 N 995,5 50 0,0
05.07.2020 16:00:00 13,4 6,7 4 2 20 11 NW 995,6 36 0,0
05.07.2020 15:00:00 12,7 6,5 5 3 22 12 WNW 995,6 50 0,0
05.07.2020 14:00:00 12,0 8,3 6 3 20 11 NNW 995,2 47 0,0
05.07.2020 13:00:00 11,5 8,5 5 3 19 11 NNW 995,2 27 0,1
05.07.2020 12:00:00 9,2 8,1 5 3 22 12 WNW 995,4 25 0,3
05.07.2020 11:00:00 8,3 7,4 6 4 28 15 NNW 995,2 16 0,3
05.07.2020 10:00:00 7,3 6,9 5 3 22 12 NW 995,2 17 0,4
05.07.2020 09:00:00 6,8 6,4 6 4 30 16 NW 995,0 17 0,2
05.07.2020 08:00:00 6,9 6,5 7 4 32 17 NNW 994,6 42 0,6
05.07.2020 07:00:00 7,0 6,7 8 5 32 17 NNW 994,3 14 0,7
05.07.2020 06:00:00 7,0 6,7 9 5 31 17 NNW 994,2 12 2,1
05.07.2020 05:00:00 7,1 6,8 8 5 25 14 NNW 994,2 6 2,6
05.07.2020 04:00:00 8,0 7,6 11 6 27 14 NNW 994,5 5 2,8
05.07.2020 03:00:00 8,2 7,9 8 4 24 13 N 995,0 7 1,2
05.07.2020 02:00:00 8,3 7,9 13 7 29 16 N 995,5 32 0,2
05.07.2020 01:00:00 8,7 8,3 18 10 31 17 N 996,1 41 0,2
05.07.2020 00:00:00 8,8 8,3 13 7 26 14 NNE 996,4 11 2,1
04.07.2020 23:00:00 9,0 8,5 14 7 25 14 NNE 996,8 17 1,4
04.07.2020 22:00:00 9,2 8,9 10 5 16 9 NNE 997,4 10 1,7
04.07.2020 21:00:00 9,5 8,9 5 3 18 10 NE 998,0 10 1,9
04.07.2020 20:00:00 9,8 9,0 4 2 12 6 NE 998,6 13 0,9
04.07.2020 19:00:00 10,8 9,4 2 1 10 5 ENE 998,9 20 0,4
04.07.2020 18:00:00 11,2 9,8 3 1 11 6 ESE 999,5 26 0,2
04.07.2020 17:00:00 10,6 8,9 6 4 22 12 SSE 999,9 18 0,1
04.07.2020 16:00:00 13,7 6,1 7 4 30 16 SSE 999,6 48 0,0
04.07.2020 15:00:00 14,9 5,1 6 4 16 9 ESE 999,9 36 0,0
04.07.2020 14:00:00 14,0 3,7 4 2 13 7 SSE 1000,1 50 0,0
04.07.2020 13:00:00 13,9 3,9 4 2 13 7 SSW 1000,4 44 0,0
04.07.2020 12:00:00 13,4 5,8 3 1 9 5 SW 1000,4 38 0,0
04.07.2020 11:00:00 13,4 6,0 5 3 18 10 WSW 1000,6 35 0,0
04.07.2020 10:00:00 11,0 5,5 3 2 16 9 W 1000,9 50 0,0

tt = temperature
td = dewpoint
ff = wind speed
fx = gusts
dd = wind direction
ppp = reduced air pressure
vv = visibility
rr = precipitation

Next stations